Home > Time Zones > World Clock > Weather > Norway > Oslo > Past weeks

Flag for Norway Weather past 2 weeks in Oslo, Norway

Now
40 °F

Chilly.


Feels Like: 40 °F
Forecast: 38 / 53 °F
Wind: 2 mph from Northeast

Location: Oslo-Blindern

Current Time: Sep 23, 2014 at 7:07:50 AM

Latest Report: Sep 23, 2014 at 6:00 AM


Visibility: N/A

Pressure: 30.03 "Hg

Humidity: 86%

Dew point: 36 °F

Location of OsloLocation

Historic Weather in Oslo — Graph

°F

Oslo temperature yesterday

Maximum temperature yesterday: 55 °F (at 2:00 PM)
Minimum temperature yesterday: 44 °F (at 8:00 PM)
Average temperature yesterday: 49 °F

Past Weeks' High & Low Weather Summary

 TemperatureHumidityPressure
High70 °F (Sep 13, 3:00 PM)98% (Sep 9, 6:00 AM)30.48 "Hg (Sep 9, 6:00 AM)
Low39 °F (Sep 23, 3:00 AM)39% (Sep 22, 1:00 PM)29.76 "Hg (Sep 9, 6:00 AM)
Average55 °F77%30.15 "Hg
* Reported Sep 8 5:00 AM — Sep 23 5:00 AM, Oslo, Weather by CustomWeather, © 2014

Note: Actual official high and low records may vary slightly from our data, if they occured in-between our weather recording intervals... More about our weather records

Advertising

Oslo weather history for previous 24 hours

 ConditionsComfort  
Time TempWeatherWind HumidityBarometerVisibility
5:00 AM
Sep 23
40 °FOvercast.2 mph83%30.03 "Hg43 mi
4:00 AM39 °FChilly.3 mph85%30.04 "HgN/A
3:00 AM39 °FChilly.2 mph84%30.06 "HgN/A
2:00 AM40 °FPassing clouds.1 mph79%30.07 "Hg43 mi
1:00 AM43 °FQuite cool.2 mph71%30.06 "HgN/A
12:00 AM45 °FQuite cool.2 mph64%30.06 "HgN/A
11:00 PM
Sep 22
46 °FOvercast.3 mph59%30.06 "Hg43 mi
10:00 PM46 °FCool.3 mph59%30.06 "HgN/A
9:00 PM45 °FCool.3 mph64%30.06 "HgN/A
8:00 PM44 °FPassing clouds.2 mph67%30.05 "Hg40 mi
7:00 PM50 °FCool.3 mph52%30.03 "HgN/A
6:00 PM53 °FCool.5 mph43%30.02 "HgN/A
5:00 PM54 °FCool.3 mph42%30.01 "HgN/A
4:00 PM55 °FCool.7 mph41%30.01 "HgN/A
3:00 PM55 °FRefreshingly cool.7 mph41%30.01 "HgN/A
2:00 PM55 °FPassing clouds.7 mph41%30.01 "Hg47 mi
1:00 PM54 °FCool.7 mph39%30.02 "HgN/A
12:00 PM53 °FCool.6 mph41%30.01 "HgN/A
11:00 AM51 °FPassing clouds.7 mph45%30.01 "Hg47 mi
10:00 AM49 °FCool.8 mph51%30.01 "HgN/A
9:00 AM48 °FCool.8 mph54%29.99 "HgN/A
8:00 AM46 °FPassing clouds.8 mph59%29.96 "Hg47 mi
7:00 AM46 °FCool.7 mph59%29.93 "HgN/A
Weather by CustomWeather, © 2014

See weather overviewHow to use our weather pages